Zurück zum Katalog

STARLINK-30850

AktivKommunikationVLEO
NORAD 58247·PAYLOAD·🇺🇸 United States

Gestartet Nov 8, 2023 von Cape Canaveral Space Force Station

Loading…

Nächste Überflüge (nächste 24 Stunden)

TLE

AktuellSource: CelesTrak SupGP

Epoche: Sep 14, 2026, 21:32 UTC

1 58247C 23171T   26257.89770833 -.00006376  00000+0 -23090-3 0  2574
2 58247  43.0033 296.6417 0001837 271.5481  27.4750 15.27583938    10

Verfolge STARLINK-30850 in Echtzeit mit AllMySat

Download on the App Store